Location: ČR
(50.0000°N, 15.0000°E)
Time: 14:07:10
(UTC+00:00)

Explorer 7 - Pass Details

Date: 26 October 2021
Orbit: 483 x 675 km, 50.3° (Epoch: 27 November)

Event Time Altitude Azimuth Distance (km) Brightness Sun altitude
Rises 00:15:59 0° 285° (WNW) 2,797 - -48.0°
Reaches altitude 10° 00:18:13 10° 281° (W) 1,928 - -47.8°
Maximum altitude 00:22:34 57° 203° (SSW) 728 - -47.4°
Drops below altitude 10° 00:27:10 10° 125° (SE) 2,034 - -46.9°
Sets 00:29:35 0° 121° (ESE) 2,966 - -46.7°
